owner,sensor,date,latitude,longitude,vertical_datum,mass_concentration_of_oxygen_in_sea_water,qcFlag 
NERRS,ioos:station:NOAA.NERRS:marscwq:1,2017-07-01T00:00:00Z,27.8383,-97.0503,6.12,6.3,1111122 
NERRS,ioos:station:NOAA.NERRS:marscwq:1,2017-07-01T01:00:00Z,27.8383,-97.0503,6.16,6.4,1111122 
NERRS,ioos:station:NOAA.NERRS:marscwq:1,2017-07-01T02:00:00Z,27.8383,-97.0503,6.2,5.9,1111122 
NERRS,ioos:station:NOAA.NERRS:marscwq:1,2017-07-01T03:00:00Z,27.8383,-97.0503,6.2,6.0,1111122 
NERRS,ioos:station:NOAA.NERRS:marscwq:1,2017-07-01T04:00:00Z,27.8383,-97.0503,6.2,6.0,1111122 
NERRS,ioos:station:NOAA.NERRS:marscwq:1,2017-07-01T05:00:00Z,27.8383,-97.0503,6.2,5.9,1111122 
NERRS,ioos:station:NOAA.NERRS:marscwq:1,2017-07-01T06:00:00Z,27.8383,-97.0503,6.2,5.6,1111122 
NERRS,ioos:station:NOAA.NERRS:marscwq:1,2017-07-01T08:00:00Z,27.8383,-97.0503,6.15,5.3,1111122 
NERRS,ioos:station:NOAA.NERRS:marscwq:1,2017-07-01T09:00:00Z,27.8383,-97.0503,6.07,5.7,1111122 
NERRS,ioos:station:NOAA.NERRS:marscwq:1,2017-07-01T10:00:00Z,27.8383,-97.0503,6.14,5.5,1111122 
NERRS,ioos:station:NOAA.NERRS:marscwq:1,2017-07-01T11:00:00Z,27.8383,-97.0503,6.19,5.4,1111122 
NERRS,ioos:station:NOAA.NERRS:marscwq:1,2017-07-01T12:00:00Z,27.8383,-97.0503,6.22,5.6,1111122 
NERRS,ioos:station:NOAA.NERRS:marscwq:1,2017-07-01T13:00:00Z,27.8383,-97.0503,6.21,5.5,1111122 
NERRS,ioos:station:NOAA.NERRS:marscwq:1,2017-07-01T14:00:00Z,27.8383,-97.0503,6.23,5.6,1111122 
NERRS,ioos:station:NOAA.NERRS:marscwq:1,2017-07-01T15:00:00Z,27.8383,-97.0503,6.25,5.5,1111122 
NERRS,ioos:station:NOAA.NERRS:marscwq:1,2017-07-01T16:00:00Z,27.8383,-97.0503,6.26,5.5,1111122 
NERRS,ioos:station:NOAA.NERRS:marscwq:1,2017-07-01T17:00:00Z,27.8383,-97.0503,6.24,5.3,1111122 
NERRS,ioos:station:NOAA.NERRS:marscwq:1,2017-07-01T18:00:00Z,27.8383,-97.0503,6.17,5.3,1111122 
NERRS,ioos:station:NOAA.NERRS:marscwq:1,2017-07-01T19:00:00Z,27.8383,-97.0503,6.13,5.6,1111122 
NERRS,ioos:station:NOAA.NERRS:marscwq:1,2017-07-01T20:00:00Z,27.8383,-97.0503,6.09,6.4,1111122 
NERRS,ioos:station:NOAA.NERRS:marscwq:1,2017-07-01T21:00:00Z,27.8383,-97.0503,6.06,6.8,1111122 
NERRS,ioos:station:NOAA.NERRS:marscwq:1,2017-07-01T22:00:00Z,27.8383,-97.0503,6.02,6.6,1111122 
NERRS,ioos:station:NOAA.NERRS:marscwq:1,2017-07-01T23:00:00Z,27.8383,-97.0503,6.0,6.6,1111122 
NERRS,ioos:station:NOAA.NERRS:marscwq:1,2017-07-02T00:00:00Z,27.8383,-97.0503,5.99,6.0,1111122 
NERRS,ioos:station:NOAA.NERRS:marscwq:1,2017-07-02T01:00:00Z,27.8383,-97.0503,6.05,6.2,1111122 
NERRS,ioos:station:NOAA.NERRS:marscwq:1,2017-07-02T02:00:00Z,27.8383,-97.0503,6.12,6.5,1111122 
NERRS,ioos:station:NOAA.NERRS:marscwq:1,2017-07-02T03:00:00Z,27.8383,-97.0503,6.0,6.5,1111122 
NERRS,ioos:station:NOAA.NERRS:marscwq:1,2017-07-02T04:00:00Z,27.8383,-97.0503,6.15,6.3,1111122 
NERRS,ioos:station:NOAA.NERRS:marscwq:1,2017-07-02T05:00:00Z,27.8383,-97.0503,6.18,6.2,1111122 
NERRS,ioos:station:NOAA.NERRS:marscwq:1,2017-07-02T06:00:00Z,27.8383,-97.0503,6.16,6.2,1111122 
NERRS,ioos:station:NOAA.NERRS:marscwq:1,2017-07-02T07:00:00Z,27.8383,-97.0503,6.19,6.0,1111122 
NERRS,ioos:station:NOAA.NERRS:marscwq:1,2017-07-02T08:00:00Z,27.8383,-97.0503,6.16,6.0,1111122 
NERRS,ioos:station:NOAA.NERRS:marscwq:1,2017-07-02T09:00:00Z,27.8383,-97.0503,6.16,5.9,1111122 
NERRS,ioos:station:NOAA.NERRS:marscwq:1,2017-07-02T10:00:00Z,27.8383,-97.0503,6.15,5.8,1111122 
NERRS,ioos:station:NOAA.NERRS:marscwq:1,2017-07-02T11:00:00Z,27.8383,-97.0503,6.17,5.6,1111122 
NERRS,ioos:station:NOAA.NERRS:marscwq:1,2017-07-02T12:00:00Z,27.8383,-97.0503,6.2,5.5,1111122 
NERRS,ioos:station:NOAA.NERRS:marscwq:1,2017-07-02T13:00:00Z,27.8383,-97.0503,6.21,5.3,1111122 
NERRS,ioos:station:NOAA.NERRS:marscwq:1,2017-07-02T14:00:00Z,27.8383,-97.0503,6.22,5.5,1111122 
NERRS,ioos:station:NOAA.NERRS:marscwq:1,2017-07-02T15:00:00Z,27.8383,-97.0503,6.21,5.2,1111122 
NERRS,ioos:station:NOAA.NERRS:marscwq:1,2017-07-02T16:00:00Z,27.8383,-97.0503,6.2,5.3,1111122 
NERRS,ioos:station:NOAA.NERRS:marscwq:1,2017-07-02T17:00:00Z,27.8383,-97.0503,6.21,5.4,1111122 
NERRS,ioos:station:NOAA.NERRS:marscwq:1,2017-07-02T18:00:00Z,27.8383,-97.0503,6.14,5.5,1111122 
NERRS,ioos:station:NOAA.NERRS:marscwq:1,2017-07-02T19:00:00Z,27.8383,-97.0503,6.11,5.9,1111122 
NERRS,ioos:station:NOAA.NERRS:marscwq:1,2017-07-02T20:00:00Z,27.8383,-97.0503,6.04,6.6,1111122 
NERRS,ioos:station:NOAA.NERRS:marscwq:1,2017-07-02T21:00:00Z,27.8383,-97.0503,6.02,6.7,1111122 
NERRS,ioos:station:NOAA.NERRS:marscwq:1,2017-07-02T22:00:00Z,27.8383,-97.0503,5.96,6.8,1111122 
NERRS,ioos:station:NOAA.NERRS:marscwq:1,2017-07-02T23:00:00Z,27.8383,-97.0503,6.04,6.3,1111122 
NERRS,ioos:station:NOAA.NERRS:marscwq:1,2017-07-03T00:00:00Z,27.8383,-97.0503,5.95,6.3,1111122 
NERRS,ioos:station:NOAA.NERRS:marscwq:1,2017-07-03T01:00:00Z,27.8383,-97.0503,5.92,6.2,1111122 
NERRS,ioos:station:NOAA.NERRS:marscwq:1,2017-07-03T02:00:00Z,27.8383,-97.0503,6.02,6.6,1111122 
NERRS,ioos:station:NOAA.NERRS:marscwq:1,2017-07-03T03:00:00Z,27.8383,-97.0503,6.05,6.3,1111122 
NERRS,ioos:station:NOAA.NERRS:marscwq:1,2017-07-03T04:00:00Z,27.8383,-97.0503,6.13,6.3,1111122 
NERRS,ioos:station:NOAA.NERRS:marscwq:1,2017-07-03T05:00:00Z,27.8383,-97.0503,6.17,6.0,1111122 
NERRS,ioos:station:NOAA.NERRS:marscwq:1,2017-07-03T06:00:00Z,27.8383,-97.0503,6.2,5.7,1111122 
NERRS,ioos:station:NOAA.NERRS:marscwq:1,2017-07-03T07:00:00Z,27.8383,-97.0503,6.17,5.6,1111122 
NERRS,ioos:station:NOAA.NERRS:marscwq:1,2017-07-03T08:00:00Z,27.8383,-97.0503,6.18,5.4,1111122 
NERRS,ioos:station:NOAA.NERRS:marscwq:1,2017-07-03T09:00:00Z,27.8383,-97.0503,6.18,5.4,1111122 
NERRS,ioos:station:NOAA.NERRS:marscwq:1,2017-07-03T10:00:00Z,27.8383,-97.0503,6.16,5.6,1111122 
NERRS,ioos:station:NOAA.NERRS:marscwq:1,2017-07-03T11:00:00Z,27.8383,-97.0503,6.17,5.4,1111122 
NERRS,ioos:station:NOAA.NERRS:marscwq:1,2017-07-03T12:00:00Z,27.8383,-97.0503,6.18,5.3,1111122 
NERRS,ioos:station:NOAA.NERRS:marscwq:1,2017-07-03T13:00:00Z,27.8383,-97.0503,6.15,5.5,1111122 
NERRS,ioos:station:NOAA.NERRS:marscwq:1,2017-07-03T14:00:00Z,27.8383,-97.0503,6.19,5.4,1111122 
NERRS,ioos:station:NOAA.NERRS:marscwq:1,2017-07-03T15:00:00Z,27.8383,-97.0503,6.18,5.3,1111122 
NERRS,ioos:station:NOAA.NERRS:marscwq:1,2017-07-03T16:00:00Z,27.8383,-97.0503,6.17,5.0,1111122 
NERRS,ioos:station:NOAA.NERRS:marscwq:1,2017-07-03T17:00:00Z,27.8383,-97.0503,6.15,4.7,1111122 
NERRS,ioos:station:NOAA.NERRS:marscwq:1,2017-07-03T18:00:00Z,27.8383,-97.0503,6.11,4.6,1111122 
NERRS,ioos:station:NOAA.NERRS:marscwq:1,2017-07-03T19:00:00Z,27.8383,-97.0503,6.09,4.8,1111122 
NERRS,ioos:station:NOAA.NERRS:marscwq:1,2017-07-03T20:00:00Z,27.8383,-97.0503,6.03,4.9,1111122 
NERRS,ioos:station:NOAA.NERRS:marscwq:1,2017-07-03T21:00:00Z,27.8383,-97.0503,5.95,5.3,1111122 
NERRS,ioos:station:NOAA.NERRS:marscwq:1,2017-07-03T22:00:00Z,27.8383,-97.0503,5.91,5.7,1111122 
NERRS,ioos:station:NOAA.NERRS:marscwq:1,2017-07-03T23:00:00Z,27.8383,-97.0503,5.85,6.4,1111122 
NERRS,ioos:station:NOAA.NERRS:marscwq:1,2017-07-04T00:00:00Z,27.8383,-97.0503,5.87,6.4,1111122 
NERRS,ioos:station:NOAA.NERRS:marscwq:1,2017-07-04T01:00:00Z,27.8383,-97.0503,5.85,6.5,1111122 
NERRS,ioos:station:NOAA.NERRS:marscwq:1,2017-07-04T02:00:00Z,27.8383,-97.0503,5.92,6.4,1111122 
NERRS,ioos:station:NOAA.NERRS:marscwq:1,2017-07-04T03:00:00Z,27.8383,-97.0503,5.98,6.2,1111122 
NERRS,ioos:station:NOAA.NERRS:marscwq:1,2017-07-04T04:00:00Z,27.8383,-97.0503,6.01,6.0,1111122 
NERRS,ioos:station:NOAA.NERRS:marscwq:1,2017-07-04T05:00:00Z,27.8383,-97.0503,6.08,6.2,1111122 
NERRS,ioos:station:NOAA.NERRS:marscwq:1,2017-07-04T06:00:00Z,27.8383,-97.0503,6.14,6.0,1111122 
NERRS,ioos:station:NOAA.NERRS:marscwq:1,2017-07-04T07:00:00Z,27.8383,-97.0503,6.14,5.5,1111122 
NERRS,ioos:station:NOAA.NERRS:marscwq:1,2017-07-04T08:00:00Z,27.8383,-97.0503,6.16,5.3,1111122 
NERRS,ioos:station:NOAA.NERRS:marscwq:1,2017-07-04T09:00:00Z,27.8383,-97.0503,6.11,5.4,1111122 
NERRS,ioos:station:NOAA.NERRS:marscwq:1,2017-07-04T10:00:00Z,27.8383,-97.0503,6.06,5.4,1111122 
NERRS,ioos:station:NOAA.NERRS:marscwq:1,2017-07-04T11:00:00Z,27.8383,-97.0503,6.14,5.5,1111122 
NERRS,ioos:station:NOAA.NERRS:marscwq:1,2017-07-04T12:00:00Z,27.8383,-97.0503,6.14,5.3,1111122 
NERRS,ioos:station:NOAA.NERRS:marscwq:1,2017-07-04T13:00:00Z,27.8383,-97.0503,6.11,5.5,1111122 
NERRS,ioos:station:NOAA.NERRS:marscwq:1,2017-07-04T14:00:00Z,27.8383,-97.0503,6.14,5.4,1111122 
NERRS,ioos:station:NOAA.NERRS:marscwq:1,2017-07-04T15:00:00Z,27.8383,-97.0503,6.12,5.2,1111122 
NERRS,ioos:station:NOAA.NERRS:marscwq:1,2017-07-04T16:00:00Z,27.8383,-97.0503,6.12,5.0,1111122 
NERRS,ioos:station:NOAA.NERRS:marscwq:1,2017-07-04T17:00:00Z,27.8383,-97.0503,6.13,5.0,1111122 
NERRS,ioos:station:NOAA.NERRS:marscwq:1,2017-07-04T18:00:00Z,27.8383,-97.0503,6.13,5.1,1111122 
NERRS,ioos:station:NOAA.NERRS:marscwq:1,2017-07-04T19:00:00Z,27.8383,-97.0503,6.08,5.1,1111122 
NERRS,ioos:station:NOAA.NERRS:marscwq:1,2017-07-04T20:00:00Z,27.8383,-97.0503,5.99,5.3,1111122 
NERRS,ioos:station:NOAA.NERRS:marscwq:1,2017-07-04T21:00:00Z,27.8383,-97.0503,5.9,5.3,1111122 
NERRS,ioos:station:NOAA.NERRS:marscwq:1,2017-07-04T22:00:00Z,27.8383,-97.0503,5.89,5.5,1111122 
NERRS,ioos:station:NOAA.NERRS:marscwq:1,2017-07-05T00:00:00Z,27.8383,-97.0503,5.79,6.1,1111122 
NERRS,ioos:station:NOAA.NERRS:marscwq:1,2017-07-05T01:00:00Z,27.8383,-97.0503,5.81,6.5,1111122 
NERRS,ioos:station:NOAA.NERRS:marscwq:1,2017-07-05T02:00:00Z,27.8383,-97.0503,5.85,6.5,1111122 
NERRS,ioos:station:NOAA.NERRS:marscwq:1,2017-07-05T03:00:00Z,27.8383,-97.0503,5.89,6.3,1111122 
NERRS,ioos:station:NOAA.NERRS:marscwq:1,2017-07-05T04:00:00Z,27.8383,-97.0503,5.95,6.1,1111122 
NERRS,ioos:station:NOAA.NERRS:marscwq:1,2017-07-05T05:00:00Z,27.8383,-97.0503,6.05,5.8,1111122 
NERRS,ioos:station:NOAA.NERRS:marscwq:1,2017-07-05T06:00:00Z,27.8383,-97.0503,6.12,6.1,1111122 
NERRS,ioos:station:NOAA.NERRS:marscwq:1,2017-07-05T07:00:00Z,27.8383,-97.0503,6.11,6.0,1111122 
NERRS,ioos:station:NOAA.NERRS:marscwq:1,2017-07-05T08:00:00Z,27.8383,-97.0503,6.14,5.1,1111122 
NERRS,ioos:station:NOAA.NERRS:marscwq:1,2017-07-05T09:00:00Z,27.8383,-97.0503,6.15,5.6,1111122 
NERRS,ioos:station:NOAA.NERRS:marscwq:1,2017-07-05T10:00:00Z,27.8383,-97.0503,6.16,5.7,1111122 
NERRS,ioos:station:NOAA.NERRS:marscwq:1,2017-07-05T11:00:00Z,27.8383,-97.0503,6.14,5.7,1111122 
NERRS,ioos:station:NOAA.NERRS:marscwq:1,2017-07-05T12:00:00Z,27.8383,-97.0503,6.16,5.7,1111122 
NERRS,ioos:station:NOAA.NERRS:marscwq:1,2017-07-05T13:00:00Z,27.8383,-97.0503,6.14,5.6,1111122 
NERRS,ioos:station:NOAA.NERRS:marscwq:1,2017-07-05T14:00:00Z,27.8383,-97.0503,6.16,5.6,1111122 
NERRS,ioos:station:NOAA.NERRS:marscwq:1,2017-07-05T15:00:00Z,27.8383,-97.0503,6.15,5.5,1111122 
NERRS,ioos:station:NOAA.NERRS:marscwq:1,2017-07-05T16:00:00Z,27.8383,-97.0503,6.18,5.6,1111122 
NERRS,ioos:station:NOAA.NERRS:marscwq:1,2017-07-05T17:00:00Z,27.8383,-97.0503,6.14,5.2,1111122 
NERRS,ioos:station:NOAA.NERRS:marscwq:1,2017-07-05T18:00:00Z,27.8383,-97.0503,6.12,5.6,1111122 
NERRS,ioos:station:NOAA.NERRS:marscwq:1,2017-07-05T19:00:00Z,27.8383,-97.0503,6.1,5.3,1111122 
NERRS,ioos:station:NOAA.NERRS:marscwq:1,2017-07-05T20:00:00Z,27.8383,-97.0503,6.01,5.7,1111122 
NERRS,ioos:station:NOAA.NERRS:marscwq:1,2017-07-05T21:00:00Z,27.8383,-97.0503,5.98,6.0,1111122 
NERRS,ioos:station:NOAA.NERRS:marscwq:1,2017-07-05T22:00:00Z,27.8383,-97.0503,5.88,6.0,1111122 
NERRS,ioos:station:NOAA.NERRS:marscwq:1,2017-07-05T23:00:00Z,27.8383,-97.0503,5.84,6.0,1111122 
NERRS,ioos:station:NOAA.NERRS:marscwq:1,2017-07-06T00:00:00Z,27.8383,-97.0503,5.78,6.2,1111122 
NERRS,ioos:station:NOAA.NERRS:marscwq:1,2017-07-06T01:00:00Z,27.8383,-97.0503,5.81,6.8,1111122 
NERRS,ioos:station:NOAA.NERRS:marscwq:1,2017-07-06T02:00:00Z,27.8383,-97.0503,5.87,6.8,1111122 
NERRS,ioos:station:NOAA.NERRS:marscwq:1,2017-07-06T03:00:00Z,27.8383,-97.0503,5.91,6.8,1111122 
NERRS,ioos:station:NOAA.NERRS:marscwq:1,2017-07-06T04:00:00Z,27.8383,-97.0503,5.95,6.6,1111122 
NERRS,ioos:station:NOAA.NERRS:marscwq:1,2017-07-06T05:00:00Z,27.8383,-97.0503,6.02,6.3,1111122 
NERRS,ioos:station:NOAA.NERRS:marscwq:1,2017-07-06T06:00:00Z,27.8383,-97.0503,6.13,6.5,1111122 
NERRS,ioos:station:NOAA.NERRS:marscwq:1,2017-07-06T07:00:00Z,27.8383,-97.0503,6.16,6.3,1111122 
NERRS,ioos:station:NOAA.NERRS:marscwq:1,2017-07-06T09:00:00Z,27.8383,-97.0503,6.19,6.0,1111122 
NERRS,ioos:station:NOAA.NERRS:marscwq:1,2017-07-06T10:00:00Z,27.8383,-97.0503,6.17,6.1,1111122 
NERRS,ioos:station:NOAA.NERRS:marscwq:1,2017-07-06T11:00:00Z,27.8383,-97.0503,6.19,6.1,1111122 
NERRS,ioos:station:NOAA.NERRS:marscwq:1,2017-07-06T12:00:00Z,27.8383,-97.0503,6.2,6.1,1111122 
NERRS,ioos:station:NOAA.NERRS:marscwq:1,2017-07-06T13:00:00Z,27.8383,-97.0503,6.17,6.0,1111122 
NERRS,ioos:station:NOAA.NERRS:marscwq:1,2017-07-06T14:00:00Z,27.8383,-97.0503,6.17,5.9,1111122 
NERRS,ioos:station:NOAA.NERRS:marscwq:1,2017-07-06T15:00:00Z,27.8383,-97.0503,6.19,5.9,1111122 
NERRS,ioos:station:NOAA.NERRS:marscwq:1,2017-07-06T16:00:00Z,27.8383,-97.0503,6.17,6.0,1111122 
NERRS,ioos:station:NOAA.NERRS:marscwq:1,2017-07-06T17:00:00Z,27.8383,-97.0503,6.17,5.9,1111122 
NERRS,ioos:station:NOAA.NERRS:marscwq:1,2017-07-06T18:00:00Z,27.8383,-97.0503,6.13,5.8,1111122 
NERRS,ioos:station:NOAA.NERRS:marscwq:1,2017-07-06T19:00:00Z,27.8383,-97.0503,6.11,5.8,1111122 
NERRS,ioos:station:NOAA.NERRS:marscwq:1,2017-07-06T20:00:00Z,27.8383,-97.0503,6.07,5.8,1111122 
NERRS,ioos:station:NOAA.NERRS:marscwq:1,2017-07-06T21:00:00Z,27.8383,-97.0503,5.92,6.0,1111122 
NERRS,ioos:station:NOAA.NERRS:marscwq:1,2017-07-06T22:00:00Z,27.8383,-97.0503,5.89,6.1,1111122 
NERRS,ioos:station:NOAA.NERRS:marscwq:1,2017-07-06T23:00:00Z,27.8383,-97.0503,5.82,6.4,1111122 
NERRS,ioos:station:NOAA.NERRS:marscwq:1,2017-07-07T00:00:00Z,27.8383,-97.0503,5.77,6.5,1111122 
NERRS,ioos:station:NOAA.NERRS:marscwq:1,2017-07-07T01:00:00Z,27.8383,-97.0503,5.77,6.7,1111122 
NERRS,ioos:station:NOAA.NERRS:marscwq:1,2017-07-07T02:00:00Z,27.8383,-97.0503,5.76,7.0,1111122 
NERRS,ioos:station:NOAA.NERRS:marscwq:1,2017-07-07T03:00:00Z,27.8383,-97.0503,5.83,7.0,1111122 
NERRS,ioos:station:NOAA.NERRS:marscwq:1,2017-07-07T04:00:00Z,27.8383,-97.0503,5.88,6.8,1111122 
NERRS,ioos:station:NOAA.NERRS:marscwq:1,2017-07-07T05:00:00Z,27.8383,-97.0503,5.95,6.5,1111122 
NERRS,ioos:station:NOAA.NERRS:marscwq:1,2017-07-07T06:00:00Z,27.8383,-97.0503,6.06,6.4,1111122 
NERRS,ioos:station:NOAA.NERRS:marscwq:1,2017-07-07T07:00:00Z,27.8383,-97.0503,6.13,6.4,1111122 
NERRS,ioos:station:NOAA.NERRS:marscwq:1,2017-07-07T08:00:00Z,27.8383,-97.0503,6.15,6.4,1111122 
NERRS,ioos:station:NOAA.NERRS:marscwq:1,2017-07-07T09:00:00Z,27.8383,-97.0503,6.17,5.7,1111122 
NERRS,ioos:station:NOAA.NERRS:marscwq:1,2017-07-07T10:00:00Z,27.8383,-97.0503,6.16,5.4,1111122 
NERRS,ioos:station:NOAA.NERRS:marscwq:1,2017-07-07T11:00:00Z,27.8383,-97.0503,6.19,5.7,1111122 
NERRS,ioos:station:NOAA.NERRS:marscwq:1,2017-07-07T12:00:00Z,27.8383,-97.0503,6.19,5.6,1111122 
NERRS,ioos:station:NOAA.NERRS:marscwq:1,2017-07-07T13:00:00Z,27.8383,-97.0503,6.23,5.5,1111122 
NERRS,ioos:station:NOAA.NERRS:marscwq:1,2017-07-07T14:00:00Z,27.8383,-97.0503,6.2,5.4,1111122 
NERRS,ioos:station:NOAA.NERRS:marscwq:1,2017-07-07T15:00:00Z,27.8383,-97.0503,6.18,5.3,1111122 
NERRS,ioos:station:NOAA.NERRS:marscwq:1,2017-07-07T16:00:00Z,27.8383,-97.0503,6.2,5.7,1111122 
NERRS,ioos:station:NOAA.NERRS:marscwq:1,2017-07-07T18:00:00Z,27.8383,-97.0503,6.19,5.9,1111122 
NERRS,ioos:station:NOAA.NERRS:marscwq:1,2017-07-07T19:00:00Z,27.8383,-97.0503,6.14,5.7,1111122 
NERRS,ioos:station:NOAA.NERRS:marscwq:1,2017-07-07T20:00:00Z,27.8383,-97.0503,6.06,5.7,1111122 
NERRS,ioos:station:NOAA.NERRS:marscwq:1,2017-07-07T21:00:00Z,27.8383,-97.0503,6.06,5.4,1111122 
NERRS,ioos:station:NOAA.NERRS:marscwq:1,2017-07-07T22:00:00Z,27.8383,-97.0503,5.96,5.9,1111122 
NERRS,ioos:station:NOAA.NERRS:marscwq:1,2017-07-07T23:00:00Z,27.8383,-97.0503,5.84,5.7,1111122 
NERRS,ioos:station:NOAA.NERRS:marscwq:1,2017-07-08T00:00:00Z,27.8383,-97.0503,5.82,5.8,1111122 
NERRS,ioos:station:NOAA.NERRS:marscwq:1,2017-07-08T01:00:00Z,27.8383,-97.0503,5.76,6.4,1111122 
NERRS,ioos:station:NOAA.NERRS:marscwq:1,2017-07-08T02:00:00Z,27.8383,-97.0503,5.78,6.4,1111122 
NERRS,ioos:station:NOAA.NERRS:marscwq:1,2017-07-08T03:00:00Z,27.8383,-97.0503,5.78,6.7,1111122 
NERRS,ioos:station:NOAA.NERRS:marscwq:1,2017-07-08T04:00:00Z,27.8383,-97.0503,5.84,6.9,1111122 
NERRS,ioos:station:NOAA.NERRS:marscwq:1,2017-07-08T05:00:00Z,27.8383,-97.0503,5.92,6.7,1111122 
NERRS,ioos:station:NOAA.NERRS:marscwq:1,2017-07-08T06:00:00Z,27.8383,-97.0503,6.0,6.4,1111122 
NERRS,ioos:station:NOAA.NERRS:marscwq:1,2017-07-08T07:00:00Z,27.8383,-97.0503,6.13,6.5,1111122 
NERRS,ioos:station:NOAA.NERRS:marscwq:1,2017-07-08T08:00:00Z,27.8383,-97.0503,6.14,6.2,1111122 
NERRS,ioos:station:NOAA.NERRS:marscwq:1,2017-07-08T09:00:00Z,27.8383,-97.0503,6.16,5.3,1111122 
NERRS,ioos:station:NOAA.NERRS:marscwq:1,2017-07-08T10:00:00Z,27.8383,-97.0503,6.19,5.7,1111122 
NERRS,ioos:station:NOAA.NERRS:marscwq:1,2017-07-08T11:00:00Z,27.8383,-97.0503,6.2,5.9,1111122 
NERRS,ioos:station:NOAA.NERRS:marscwq:1,2017-07-08T12:00:00Z,27.8383,-97.0503,6.2,5.9,1111122 
NERRS,ioos:station:NOAA.NERRS:marscwq:1,2017-07-08T13:00:00Z,27.8383,-97.0503,6.2,5.8,1111122 
NERRS,ioos:station:NOAA.NERRS:marscwq:1,2017-07-08T14:00:00Z,27.8383,-97.0503,6.21,5.6,1111122 
NERRS,ioos:station:NOAA.NERRS:marscwq:1,2017-07-08T15:00:00Z,27.8383,-97.0503,6.24,5.8,1111122 
NERRS,ioos:station:NOAA.NERRS:marscwq:1,2017-07-08T16:00:00Z,27.8383,-97.0503,6.14,5.9,1111122 
NERRS,ioos:station:NOAA.NERRS:marscwq:1,2017-07-08T17:00:00Z,27.8383,-97.0503,6.19,5.8,1111122 
NERRS,ioos:station:NOAA.NERRS:marscwq:1,2017-07-08T18:00:00Z,27.8383,-97.0503,6.18,5.7,1111122 
NERRS,ioos:station:NOAA.NERRS:marscwq:1,2017-07-08T19:00:00Z,27.8383,-97.0503,6.11,5.5,1111122 
NERRS,ioos:station:NOAA.NERRS:marscwq:1,2017-07-08T20:00:00Z,27.8383,-97.0503,6.12,5.6,1111122 
NERRS,ioos:station:NOAA.NERRS:marscwq:1,2017-07-08T21:00:00Z,27.8383,-97.0503,6.09,5.7,1111122 
NERRS,ioos:station:NOAA.NERRS:marscwq:1,2017-07-08T22:00:00Z,27.8383,-97.0503,5.96,5.8,1111122 
NERRS,ioos:station:NOAA.NERRS:marscwq:1,2017-07-09T00:00:00Z,27.8383,-97.0503,5.77,6.2,1111122 
NERRS,ioos:station:NOAA.NERRS:marscwq:1,2017-07-09T01:00:00Z,27.8383,-97.0503,5.84,6.4,1111122 
NERRS,ioos:station:NOAA.NERRS:marscwq:1,2017-07-09T02:00:00Z,27.8383,-97.0503,5.73,6.4,1111122 
NERRS,ioos:station:NOAA.NERRS:marscwq:1,2017-07-09T03:00:00Z,27.8383,-97.0503,5.73,6.6,1111122 
NERRS,ioos:station:NOAA.NERRS:marscwq:1,2017-07-09T04:00:00Z,27.8383,-97.0503,5.77,6.5,1111122 
NERRS,ioos:station:NOAA.NERRS:marscwq:1,2017-07-09T05:00:00Z,27.8383,-97.0503,5.84,6.5,1111122 
NERRS,ioos:station:NOAA.NERRS:marscwq:1,2017-07-09T06:00:00Z,27.8383,-97.0503,5.95,6.2,1111122 
NERRS,ioos:station:NOAA.NERRS:marscwq:1,2017-07-09T07:00:00Z,27.8383,-97.0503,6.01,5.8,1111122 
NERRS,ioos:station:NOAA.NERRS:marscwq:1,2017-07-09T08:00:00Z,27.8383,-97.0503,6.09,5.8,1111122 
NERRS,ioos:station:NOAA.NERRS:marscwq:1,2017-07-09T09:00:00Z,27.8383,-97.0503,6.18,5.8,1111122 
NERRS,ioos:station:NOAA.NERRS:marscwq:1,2017-07-09T10:00:00Z,27.8383,-97.0503,6.14,6.0,1111122 
NERRS,ioos:station:NOAA.NERRS:marscwq:1,2017-07-09T11:00:00Z,27.8383,-97.0503,6.17,5.7,1111122 
NERRS,ioos:station:NOAA.NERRS:marscwq:1,2017-07-09T12:00:00Z,27.8383,-97.0503,6.19,5.8,1111122 
NERRS,ioos:station:NOAA.NERRS:marscwq:1,2017-07-09T13:00:00Z,27.8383,-97.0503,6.19,5.8,1111122 
NERRS,ioos:station:NOAA.NERRS:marscwq:1,2017-07-09T14:00:00Z,27.8383,-97.0503,6.17,5.9,1111122 
NERRS,ioos:station:NOAA.NERRS:marscwq:1,2017-07-09T15:00:00Z,27.8383,-97.0503,6.18,5.7,1111122 
NERRS,ioos:station:NOAA.NERRS:marscwq:1,2017-07-09T16:00:00Z,27.8383,-97.0503,6.19,5.5,1111122 
NERRS,ioos:station:NOAA.NERRS:marscwq:1,2017-07-09T18:00:00Z,27.8383,-97.0503,6.14,5.4,1111122 
NERRS,ioos:station:NOAA.NERRS:marscwq:1,2017-07-09T19:00:00Z,27.8383,-97.0503,6.15,5.6,1111122 
NERRS,ioos:station:NOAA.NERRS:marscwq:1,2017-07-09T20:00:00Z,27.8383,-97.0503,6.13,5.6,1111122 
NERRS,ioos:station:NOAA.NERRS:marscwq:1,2017-07-09T21:00:00Z,27.8383,-97.0503,6.03,5.9,1111122 
NERRS,ioos:station:NOAA.NERRS:marscwq:1,2017-07-09T22:00:00Z,27.8383,-97.0503,6.0,5.9,1111122 
NERRS,ioos:station:NOAA.NERRS:marscwq:1,2017-07-09T23:00:00Z,27.8383,-97.0503,5.95,5.8,1111122 
NERRS,ioos:station:NOAA.NERRS:marscwq:1,2017-07-10T00:00:00Z,27.8383,-97.0503,5.86,5.8,1111122 
NERRS,ioos:station:NOAA.NERRS:marscwq:1,2017-07-10T01:00:00Z,27.8383,-97.0503,5.75,6.0,1111122 
NERRS,ioos:station:NOAA.NERRS:marscwq:1,2017-07-10T02:00:00Z,27.8383,-97.0503,5.73,6.4,1111122 
NERRS,ioos:station:NOAA.NERRS:marscwq:1,2017-07-10T03:00:00Z,27.8383,-97.0503,5.7,6.3,1111122 
NERRS,ioos:station:NOAA.NERRS:marscwq:1,2017-07-10T04:00:00Z,27.8383,-97.0503,5.72,6.2,1111122 
NERRS,ioos:station:NOAA.NERRS:marscwq:1,2017-07-10T05:00:00Z,27.8383,-97.0503,5.82,6.2,1111122 
NERRS,ioos:station:NOAA.NERRS:marscwq:1,2017-07-10T06:00:00Z,27.8383,-97.0503,5.91,6.2,1111122 
NERRS,ioos:station:NOAA.NERRS:marscwq:1,2017-07-10T07:00:00Z,27.8383,-97.0503,5.94,5.9,1111122 
NERRS,ioos:station:NOAA.NERRS:marscwq:1,2017-07-10T08:00:00Z,27.8383,-97.0503,5.99,5.6,1111122 
NERRS,ioos:station:NOAA.NERRS:marscwq:1,2017-07-10T09:00:00Z,27.8383,-97.0503,6.12,5.8,1111122 
NERRS,ioos:station:NOAA.NERRS:marscwq:1,2017-07-10T10:00:00Z,27.8383,-97.0503,6.12,5.7,1111122 
NERRS,ioos:station:NOAA.NERRS:marscwq:1,2017-07-10T11:00:00Z,27.8383,-97.0503,6.16,5.8,1111122 
NERRS,ioos:station:NOAA.NERRS:marscwq:1,2017-07-10T12:00:00Z,27.8383,-97.0503,6.13,5.8,1111122 
NERRS,ioos:station:NOAA.NERRS:marscwq:1,2017-07-10T13:00:00Z,27.8383,-97.0503,6.18,5.7,1111122 
NERRS,ioos:station:NOAA.NERRS:marscwq:1,2017-07-10T14:00:00Z,27.8383,-97.0503,6.16,5.6,1111122 
NERRS,ioos:station:NOAA.NERRS:marscwq:1,2017-07-10T15:00:00Z,27.8383,-97.0503,6.16,5.5,1111122 
NERRS,ioos:station:NOAA.NERRS:marscwq:1,2017-07-10T16:00:00Z,27.8383,-97.0503,6.16,5.4,1111122 
NERRS,ioos:station:NOAA.NERRS:marscwq:1,2017-07-10T17:00:00Z,27.8383,-97.0503,6.17,5.7,1111122 
NERRS,ioos:station:NOAA.NERRS:marscwq:1,2017-07-10T18:00:00Z,27.8383,-97.0503,6.16,5.7,1111122 
NERRS,ioos:station:NOAA.NERRS:marscwq:1,2017-07-10T19:00:00Z,27.8383,-97.0503,6.13,5.8,1111122 
NERRS,ioos:station:NOAA.NERRS:marscwq:1,2017-07-10T20:00:00Z,27.8383,-97.0503,6.13,5.8,1111122 
NERRS,ioos:station:NOAA.NERRS:marscwq:1,2017-07-10T21:00:00Z,27.8383,-97.0503,6.1,5.8,1111122 
NERRS,ioos:station:NOAA.NERRS:marscwq:1,2017-07-10T22:00:00Z,27.8383,-97.0503,6.06,5.7,1111122 
NERRS,ioos:station:NOAA.NERRS:marscwq:1,2017-07-10T23:00:00Z,27.8383,-97.0503,5.99,5.6,1111122 
NERRS,ioos:station:NOAA.NERRS:marscwq:1,2017-07-11T00:00:00Z,27.8383,-97.0503,5.91,5.9,1111122 
NERRS,ioos:station:NOAA.NERRS:marscwq:1,2017-07-11T01:00:00Z,27.8383,-97.0503,5.81,6.0,1111122 
NERRS,ioos:station:NOAA.NERRS:marscwq:1,2017-07-11T02:00:00Z,27.8383,-97.0503,5.76,6.2,1111122 
NERRS,ioos:station:NOAA.NERRS:marscwq:1,2017-07-11T03:00:00Z,27.8383,-97.0503,5.76,6.3,1111122 
NERRS,ioos:station:NOAA.NERRS:marscwq:1,2017-07-11T04:00:00Z,27.8383,-97.0503,5.75,6.5,1111122 
NERRS,ioos:station:NOAA.NERRS:marscwq:1,2017-07-11T05:00:00Z,27.8383,-97.0503,5.76,6.2,1111122 
NERRS,ioos:station:NOAA.NERRS:marscwq:1,2017-07-11T06:00:00Z,27.8383,-97.0503,5.78,6.1,1111122 
NERRS,ioos:station:NOAA.NERRS:marscwq:1,2017-07-11T07:00:00Z,27.8383,-97.0503,5.89,6.1,1111122 
NERRS,ioos:station:NOAA.NERRS:marscwq:1,2017-07-11T08:00:00Z,27.8383,-97.0503,6.02,5.9,1111122 
NERRS,ioos:station:NOAA.NERRS:marscwq:1,2017-07-11T09:00:00Z,27.8383,-97.0503,6.05,5.9,1111122 
NERRS,ioos:station:NOAA.NERRS:marscwq:1,2017-07-11T10:00:00Z,27.8383,-97.0503,6.11,5.7,1111122 
NERRS,ioos:station:NOAA.NERRS:marscwq:1,2017-07-11T11:00:00Z,27.8383,-97.0503,6.13,5.4,1111122 
NERRS,ioos:station:NOAA.NERRS:marscwq:1,2017-07-11T12:00:00Z,27.8383,-97.0503,6.12,5.4,1111122 
NERRS,ioos:station:NOAA.NERRS:marscwq:1,2017-07-11T13:00:00Z,27.8383,-97.0503,6.17,5.6,1111122 
NERRS,ioos:station:NOAA.NERRS:marscwq:1,2017-07-11T14:00:00Z,27.8383,-97.0503,6.14,5.5,1111122 